Date,TemperatureHighF,TemperatureAvgF,TemperatureLowF,DewpointHighF,DewpointAvgF,DewpointLowF,HumidityHigh,HumidityAvg,HumidityLow,PressureMaxIn,PressureMinIn,WindSpeedMaxMPH,WindSpeedAvgMPH,GustSpeedMaxMPH,PrecipitationSumIn
2013-3-1,42.1,38.1,34.3,28.3,26.3,23.4,71,63,57,30.05,29.98,0,-999,0,0.00
2013-3-2,39.4,35.6,32.9,29.6,26.4,24.3,79,69,59,30.06,29.99,0,-999,0,0.00
2013-3-3,45.0,33.3,27.7,24.1,20.7,16.9,74,60,41,30.12,30.04,0,-999,0,0.00
2013-3-4,63.3,43.1,25.2,34.2,25.4,17.1,75,53,32,30.23,30.02,0,-999,0,0.00
2013-3-5,66.4,53.0,38.8,55.4,42.5,26.1,86,68,53,30.08,29.73,0,-999,0,0.14
2013-3-6,46.6,36.9,30.7,30.0,24.6,18.5,72,61,51,30.22,29.94,0,-999,0,0.14
2013-3-7,61.0,43.4,30.0,34.4,28.8,23.8,79,59,36,30.30,30.19,0,-999,0,0.00
2013-3-8,65.1,46.2,29.3,35.7,27.9,23.3,80,52,28,30.35,30.22,0,-999,0,0.00
2013-3-9,64.0,50.6,36.1,35.5,30.3,23.6,65,47,34,30.35,30.21,0,-999,0,0.00
2013-3-10,71.8,59.4,48.9,42.9,37.5,32.4,59,45,30,30.23,30.07,0,-999,0,0.00
2013-3-11,67.6,57.0,48.9,54.9,50.0,42.2,90,78,59,30.10,29.83,0,-999,0,0.86
2013-3-12,60.1,47.8,37.6,45.7,35.9,31.8,90,66,41,30.13,29.87,0,-999,0,0.59
2013-3-13,58.1,45.1,34.2,34.8,27.8,21.3,81,54,30,30.27,30.11,0,-999,0,0.00
2013-3-14,56.3,41.7,28.2,24.7,20.4,16.6,63,44,26,30.40,30.23,0,-999,0,0.00
2013-3-15,75.4,55.1,33.8,45.2,35.5,23.1,77,50,33,30.26,30.01,0,-999,0,0.00
2013-3-16,79.9,62.8,49.8,44.0,41.5,38.8,67,48,28,30.05,29.91,0,-999,0,0.00
2013-3-17,73.2,61.5,50.5,54.5,48.4,40.3,80,63,48,30.05,29.93,0,-999,0,0.00
2013-3-18,65.3,57.3,48.7,57.3,52.2,45.7,90,83,70,30.02,29.82,0,-999,0,0.84
2013-3-19,65.8,53.6,44.2,45.5,37.3,27.8,90,59,29,30.09,29.89,0,-999,0,0.84
2013-3-20,61.3,48.9,40.8,27.6,25.0,22.5,54,40,26,30.16,29.93,0,-999,0,0.00
2013-3-21,52.0,41.4,30.9,27.3,20.2,13.9,70,45,26,30.02,29.91,0,-999,0,0.00
2013-3-22,54.1,44.4,38.1,33.9,25.8,18.0,59,48,42,30.09,29.98,0,-999,0,0.00
2013-3-23,56.8,49.1,43.0,49.3,42.1,33.0,89,77,59,30.04,29.77,0,-999,0,0.63
2013-3-24,53.4,49.2,42.4,50.0,44.8,29.9,90,85,60,29.85,29.55,0,-999,0,0.29
2013-3-25,46.6,39.5,34.0,30.3,24.4,20.6,65,55,43,30.09,29.71,0,-999,0,0.00
2013-3-26,41.9,36.0,30.7,27.1,23.8,20.6,74,61,51,30.30,30.08,0,-999,0,0.00
2013-3-27,55.2,41.5,28.0,29.9,24.9,20.3,76,54,35,30.37,30.25,0,-999,0,0.00
2013-3-28,62.4,47.3,31.6,32.3,28.2,24.3,77,51,28,30.36,30.24,0,-999,0,0.00
2013-3-29,73.4,53.9,35.8,40.1,34.0,28.3,77,50,30,30.35,30.17,0,-999,0,0.00
2013-3-30,76.3,59.1,49.8,99.9,43.9,34.7,87,53,39,30.20,30.04,0,-999,0,0.10
2013-3-31,70.5,61.4,56.1,57.6,54.4,51.5,89,78,61,30.06,29.90,0,-999,0,0.10